Regional Weather Roundup
Issued by NWS

Home | Current Version | Previous Version | Graphics & Text | Print | Product List | Glossary On
Versions: 1 2 3 4 5 6 7 8 9 10 11 12 13 14 15 16 17 18 19 20 21 22 23 24 25 26 27 28 29 30 31 32 33 34 35 36 37 38 39 40 41 42 43 44 45 46 47 48 49 50
805
ASUS43 KDTX 011210
RWRMI
MICHIGAN HOURLY REGIONAL WEATHER ROUNDUP
NATIONAL WEATHER SERVICE DETROIT/PONTIAC MI
800 AM EDT SAT OCT 01 2016

NOTE: "FAIR" INDICATES FEW OR NO CLOUDS BELOW 12,000 FEET WITH NO
SIGNIFICANT WEATHER AND/OR OBSTRUCTION TO VISIBILITY.

MIZ047>049-052>055-059>063-066>070-074>076-081>083-011300-
SOUTHEAST LOWER MICHIGAN

CITY           SKY/WX    TMP DP  RH WIND       PRES   REMARKS
ADRIAN         CLOUDY    59  59 100 SE8       30.05R
6HR MIN TEMP:  58; 6HR MAX TEMP:  60;

ALMA           CLOUDY    58  58 100 NE7       30.09R
ANN ARBOR      CLOUDY    59  59 100 NE5       30.05R FOG
BAD AXE        CLOUDY    57  56  99 MISG      30.12S FOG
CARO           CLOUDY    56  56  98 E5        30.10R
DETROIT CITY   CLOUDY    60  60 100 E6        30.07S
6HR MIN TEMP:  57; 6HR MAX TEMP:  60; 6HR PCP:  0.28;

DETROIT        LGT RAIN  60  60 100 E5        30.06S FOG
6HR MIN TEMP:  58; 6HR MAX TEMP:  60; 6HR PCP:  0.26;

FLINT          CLOUDY    57  56  96 E7        30.08S
6HR MIN TEMP:  56; 6HR MAX TEMP:  57; 6HR PCP:  0.22;

GROSSE ILE     CLOUDY    61  60  96 NE5       30.04S
6HR MIN TEMP:  60; 6HR MAX TEMP:  62; 6HR PCP:  0.20;

HILLSDALE      CLOUDY    57  55  94 E5        30.02F FOG
HOWELL         CLOUDY    57  56  99 E6        30.06S
6HR MIN TEMP:  56; 6HR MAX TEMP:  57;


CITY           SKY/WX    TMP DP  RH WIND       PRES   REMARKS
JACKSON        CLOUDY    58  58 100 E7        30.04S
6HR MIN TEMP:  56; 6HR MAX TEMP:  58; 6HR PCP:  0.49;

LAMBERTVILLE   CLOUDY    60  59  94 S5        30.05R FOG
6HR MIN TEMP:  60; 6HR MAX TEMP:  61;

LANSING        LGT RAIN  57  55  93 E9        30.06S FOG
6HR MIN TEMP:  56; 6HR MAX TEMP:  58; 6HR PCP:  0.23;

LAPEER         DRIZZLE   56  55  98 E6        30.09S
6HR MIN TEMP:  56; 6HR MAX TEMP:  56; 6HR PCP:  0.01;

MASON          CLOUDY    56  56  97 E5        30.06S
MONROE         CLOUDY    61  60  97 S6        30.03F
MT. CLEMENS    DRIZZLE   58  58 100 E12       30.06S FOG
6HR MIN TEMP:  57; 6HR MAX TEMP:  58; 6HR PCP:  0.05;

PONTIAC        DRIZZLE   57  55  93 E8        30.06S FOG
6HR MIN TEMP:  56; 6HR MAX TEMP:  57; 6HR PCP:  0.12;

PORT HURON     CLOUDY    55  55 100 E6        30.11R FOG
TRI CITIES     CLOUDY    58  57  97 E10       30.11R
6HR MIN TEMP:  57; 6HR MAX TEMP:  58; 6HR PCP:  0.03;

MIDLAND        DRIZZLE   57  57 100 E7        30.10R
6HR MIN TEMP:  56; 6HR MAX TEMP:  57; 6HR PCP:  0.01;

TROY           DRIZZLE   58  57  94 E5        30.09S
SAGINAW HB     CLOUDY    57  55  94 E7        30.10R
$$
MIZ043>046-050>051-056>058-064>065-071>073-077>080-011300-
SOUTHWEST LOWER MICHIGAN

CITY           SKY/WX    TMP DP  RH WIND       PRES   REMARKS
BATTLE CREEK   CLOUDY    58  57  97 E6        30.04S
6HR MIN TEMP:  57; 6HR MAX TEMP:  60; 6HR PCP:  0.17;

BENTON HARBOR  LGT RAIN  60  57  89 E7        30.01S
6HR MIN TEMP:  60; 6HR MAX TEMP:  61; 6HR PCP:  0.06;

BIG RAPIDS     CLOUDY    57  56  97 CALM      30.09R FOG
6HR MIN TEMP:  56; 6HR MAX TEMP:  57;

COLDWATER      CLOUDY    58  58 100 E7        30.02S FOG
6HR MIN TEMP:  58; 6HR MAX TEMP:  60;

FREMONT        CLOUDY    56  55  99 NE8       30.07S FOG
HOLLAND        HVY RAIN  58  56  93 E6        30.05S FOG
6HR MIN TEMP:  58; 6HR MAX TEMP:  61; 6HR PCP:  0.02;

GRAND RAPIDS   HVY RAIN  57  55  93 E7        30.06R FOG
6HR MIN TEMP:  57; 6HR MAX TEMP:  58; 6HR PCP:  0.15;

IONIA          RAIN      56  55  97 E7        30.06R
6HR MIN TEMP:  55; 6HR MAX TEMP:  56; 6HR PCP:  0.16;

KALAMAZOO      CLOUDY    58  55  90 E5        30.04S
6HR MIN TEMP:  58; 6HR MAX TEMP:  61; 6HR PCP:  0.09;

LUDINGTON      CLOUDY    55  55  99 NE6       30.09S
6HR MIN TEMP:  55; 6HR MAX TEMP:  57;

MARSHALL       CLOUDY    57  57  98 E5        30.03S
6HR MIN TEMP:  57; 6HR MAX TEMP:  59; 6HR PCP:  0.30;

MOUNT PLEASANT LGT RAIN  57  57  97 E8        30.08S
6HR MIN TEMP:  56; 6HR MAX TEMP:  57; 6HR PCP:  0.03;

MUSKEGON       CLOUDY    58  56  93 NE9       30.07R
6HR MIN TEMP:  58; 6HR MAX TEMP:  61;

SOUTH HAVEN    RAIN      59  58  97 NE5       30.02S
$$
MIZ016>042-011300-
NORTHERN LOWER MICHIGAN

CITY           SKY/WX    TMP DP  RH WIND       PRES   REMARKS
ALPENA         LGT RAIN  58  54  86 NE9       30.16F
6HR MIN TEMP:  58; 6HR MAX TEMP:  61; 6HR PCP: TRACE;

BEAVER ISLAND  CLOUDY    59  56  88 NE9       30.18S
6HR MIN TEMP:  59; 6HR MAX TEMP:  61;

BELLAIRE       CLOUDY    58  54  86 N3        30.15R
6HR MIN TEMP:  58; 6HR MAX TEMP:  59;

CADILLAC       CLOUDY    54  53  96 E12       30.11S FOG
CHARLEVOIX     CLOUDY    59  53  80 E9G17     30.19R
6HR MIN TEMP:  59; 6HR MAX TEMP:  61;

FRANKFORT      CLOUDY    60  55  83 CALM      30.12R
GAYLORD        CLOUDY    56  51  84 NE9       30.16R
6HR MIN TEMP:  56; 6HR MAX TEMP:  58;

GRAYLING       CLOUDY    56  52  86 NE8       30.15S
HARBOR SPRINGS MOCLDY    58  53  83 E10       30.16S
HOUGHTON LAKE  LGT RAIN  55  54  96 E10       30.13S
6HR MIN TEMP:  53; 6HR MAX TEMP:  55; 6HR PCP: TRACE;

MANISTEE       CLOUDY    57  54  88 E10       30.11R
OSCODA         CLOUDY    57  56  95 E6        30.14S
6HR MIN TEMP:  56; 6HR MAX TEMP:  59; 6HR PCP:  0.04;

PELLSTON       CLOUDY    59  53  80 NE8       30.18S
6HR MIN TEMP:  59; 6HR MAX TEMP:  60;

ROGERS CITY    LGT RAIN  56  54  91 E12       30.20R
TRAVERSE CITY  CLOUDY    60  54  80 E8        30.12R
6HR MIN TEMP:  60; 6HR MAX TEMP:  61; 6HR PCP:  0.01;

$$
MIZ007>008-015-011300-
EASTERN UPPER MICHIGAN

CITY           SKY/WX    TMP DP  RH WIND       PRES   REMARKS
KINROSS        CLOUDY    55  48  77 E8        30.22S
6HR MIN TEMP:  54; 6HR MAX TEMP:  57;

MACKINAC ISLAN CLOUDY    57  52  82 NE9       30.20R
NEWBERRY       CLOUDY    53  49  87 NE5       30.21S
6HR MIN TEMP:  53; 6HR MAX TEMP:  54;

S. S. MARIE    CLOUDY    57  48  72 VRB5      30.22R
6HR MIN TEMP:  57; 6HR MAX TEMP:  58;

MUNISING         N/A     54  52  93 CALM      30.21S
6HR MIN TEMP:  54; 6HR MAX TEMP:  60;

$$
MIZ004>006-011>014-085-011300-
CENTRAL UPPER MICHIGAN

CITY           SKY/WX    TMP DP  RH WIND       PRES   REMARKS
MANISTIQUE     CLOUDY    55  51  86 NE6       30.19S
6HR MIN TEMP:  54; 6HR MAX TEMP:  57; 6HR PCP:  0.01;

ESCANABA       CLOUDY    57  53  86 N7        30.17F
6HR MIN TEMP:  56; 6HR MAX TEMP:  62; 6HR PCP:  0.07;

MENOMINEE      CLOUDY    58  56  93 NE8       30.15F
6HR MIN TEMP:  58; 6HR MAX TEMP:  62; 6HR PCP: TRACE;

SAWYER-GWINN   CLOUDY    54  48  82 N5        30.21F
$$
MIZ001>003-009>011-084-011300-
WESTERN UPPER MICHIGAN

CITY           SKY/WX    TMP DP  RH WIND       PRES   REMARKS
IRON MOUNTAIN  LGT RAIN  54  50  86 N5        30.19S
6HR MIN TEMP:  52; 6HR MAX TEMP:  57; 6HR PCP: TRACE;

HOUGHTON       CLOUDY    57  54  89 E7        30.22S
6HR MIN TEMP:  55; 6HR MAX TEMP:  59;

COPPER HARBOR    N/A     52  51  97 SW3       30.23S
6HR MIN TEMP:  52; 6HR MAX TEMP:  60;

IRONWOOD       CLOUDY    46  45  96 CALM      30.23S
6HR MIN TEMP:  44; 6HR MAX TEMP:  50;

$$

ABBREVIATIONS USED IN REMARKS
   TC - TEMPERATURE IN CELSIUS
  WCI - WIND CHILL INDEX
   HX - HEAT INDEX
  VSB - VISIBILITY





USA.gov is the U.S. government's official web portal to all federal, state and local government web resources and services.